Location: ????????????
(48.6125°N, 33.0814°E)
Time: 06:06:55
(UTC+00:00)

Daily predictions for brighter satellites

Satellite Brightness Start Highest point End
(mag) Time Altitude Azimuth Time Altitude Azimuth Time Altitude Azimuth
Cosmos 1954 Rocket 4.4 17:28:12 10° S 17:33:13 45° ESE 17:38:16 10° NE
DMSP B5D2-2 4.2 17:28:14 10° NNE 17:33:24 54° E 17:38:31 10° S
Cosmos 1821 Rocket 4.0 17:27:32 10° S 17:33:40 73° E 17:39:56 10° NNE
Cosmos 1666 Rocket 3.8 17:29:32 10° SSE 17:33:42 48° E 17:37:54 10° NNE
IRIDIUM 103 4.3 17:31:21 10° S 17:36:34 82° E 17:41:49 10° N
Ariane Rocket 3.4 17:33:22 10° S 17:38:25 70° WSW 17:43:29 10° NNW
Cosmos 407 Rocket 3.7 17:38:16 10° SSW 17:43:36 79° WNW 17:48:53 10° NNE
Cosmos 405 Rocket 4.1 17:40:56 10° SE 17:43:40 20° E 17:46:26 10° NE
Cosmos 1805 Rocket 4.1 17:39:53 10° SSW 17:44:19 67° WNW 17:48:47 10° N
Cosmos 1812 3.7 17:41:16 10° NNW 17:45:00 51° W 17:48:43 10° S
Cosmos 2333 Rocket 4.4 17:42:28 10° N 17:45:14 13° NNE 17:48:00 10° ENE
FREGAT/IRIS 3.5 17:43:53 10° S 17:46:24 43° W 17:48:57 10° NNW
BREEZE-M (TANK) 4.3 17:42:53 10° WSW 17:47:11 89° SSE 18:06:24 10° E
Cosmos 1190 Rocket 4.1 17:42:25 10° SSW 17:47:43 88° WNW 17:53:05 10° NNE
Cosmos 1763 Rocket 4.2 17:43:15 10° NNW 17:48:16 40° ENE 17:53:10 10° SE
NOSS 2 (A) 4.4 17:47:02 10° NW 17:49:36 61° SW 17:51:55 10° SSE
Cosmos 1140 Rocket 3.6 17:44:33 10° SSW 17:49:49 87° WNW 17:55:07 10° NNE
SJ-6B 3.5 17:46:57 10° S 17:50:55 58° W 17:54:48 10° NNW
Cosmos 1437 Rocket 4.2 17:51:00 10° NNE 17:53:57 21° ENE 17:56:31 12° ESE
Resurs 1-3 3.6 17:49:50 10° SSE 17:54:12 79° ENE 17:58:37 10° NNW
deb Kosmos-1763 4.2 17:51:37 10° SSW 17:55:15 80° WNW 17:58:56 10° NNE
Cosmos 2123 Rocket 4.0 17:51:05 10° N 17:57:20 76° E 18:03:36 10° SSE
FALCON 9 DEB 3.9 17:54:06 10° W 17:57:32 55° NNW 18:01:00 10° ENE
Cosmos 2084 Rocket 4.2 17:55:12 10° S 17:58:50 29° ESE 18:02:34 10° ENE
Cosmos 1535 Rocket 4.5 17:53:23 10° S 17:59:25 66° E 18:05:28 10° NNE
Cosmos 1633 Rocket 3.0 17:56:10 10° S 18:00:35 77° E 18:05:00 10° NNE
OBJECT-B 1.0 17:57:40 10° S 18:00:57 77° WSW 18:04:16 10° NNW
Cosmos 921 Rocket 2.9 17:59:55 10° NNW 18:04:09 78° ENE 18:08:15 10° SSE
MetOp-B 4.5 17:59:30 10° SE 18:04:40 50° ENE 18:09:50 10° N
Meteor 1-27 Rocket 4.4 17:59:03 10° NNW 18:04:55 62° W 18:10:45 10° S
Cosmos 1184 Rocket 2.7 18:02:19 10° S 18:05:36 69° E 18:08:53 10° NNE
Cosmos 1605 Rocket 4.1 18:02:02 10° SSE 18:07:54 52° E 18:13:46 10° NNE
NOSS 3-2 (A) 3.3 18:03:14 10° SSW 18:08:56 75° SE 18:15:30 10° NE
USA 267 4.0 18:05:05 10° ENE 18:10:34 28° SE 18:16:02 10° S
CZ-2C R/B 3.0 18:07:14 10° N 18:12:25 69° WNW 18:17:38 10° SSW
Cosmos 2219 Rocket 4.2 18:12:32 10° N 18:16:09 17° NE 18:19:45 10° ENE
Okean 1 3.7 18:13:38 10° N 18:17:35 48° ENE 18:20:28 17° SSE
NOSS 3-2 (C) 3.4 18:14:01 10° SSW 18:19:35 58° ESE 18:25:59 10° NE
SL-16 R/B 2.4 18:14:35 10° NNW 18:20:15 63° ENE 18:24:36 17° SE
Cosmos 540 Rocket 4.2 18:16:33 10° N 18:21:24 38° ENE 18:24:50 18° ESE
SL-4 R/B 2.5 18:24:03 10° W 18:27:59 55° N 18:31:38 10° ENE
Cosmos 2242 Rocket 3.6 18:23:59 10° N 18:28:24 65° ENE 18:31:38 18° SSE
Cosmos 2082 Rocket 3.1 18:24:25 10° SW 18:29:59 54° NW 18:35:34 10° NNE
Cosmos 1470 Rocket 3.5 18:25:55 10° S 18:30:20 87° E 18:34:44 10° N
SL-27 R/B 2.8 18:31:00 23° SSE 18:32:33 36° ESE 18:35:39 10° NE
Meteor 1-14 Rocket 4.5 18:31:01 10° S 18:36:44 55° E 18:42:33 10° NNE
Cosmos 2322 Rocket 2.3 18:31:55 10° NNW 18:37:38 69° ENE 18:41:26 22° SE
ERS-1 Rocket 3.6 18:36:14 21° SE 18:39:07 41° ENE 18:43:49 10° N
Meteor 1-25 Rocket 4.3 18:38:10 10° SSW 18:43:46 83° WNW 18:49:28 10° N
Cosmos 1850 Rocket 3.9 18:38:43 10° SSW 18:43:58 71° ESE 18:49:13 10° NNE
ATLAS 3B R/B 3.1 18:39:09 10° S 18:45:00 35° ESE 18:50:54 10° NE
SPOT 1/Viking Rocket 3.6 18:42:53 21° SSE 18:46:22 69° ENE 18:51:35 10° N
Cosmos 2360 Rocket 2.7 18:41:19 10° NNW 18:46:49 48° NE 18:50:02 23° ESE
Cosmos 841 Rocket 3.6 18:41:41 10° NNW 18:46:53 62° ENE 18:49:50 26° SE
Meteor 1-18 Rocket 4.2 18:41:27 10° NNW 18:47:03 87° W 18:51:22 17° S
USA 234 3.6 18:41:39 14° E 18:47:19 60° NNE 18:53:45 10° NW
USA 32 4.2 18:42:59 10° SSW 18:48:12 73° W 18:53:27 10° N
Terra 2.7 18:49:02 24° ESE 18:51:05 34° ENE 18:55:22 10° N
Cosmos 1500 3.8 18:50:44 33° ESE 18:51:28 36° E 18:54:56 10° NNE
Cosmos 1238 Rocket 2.9 18:51:42 13° SSW 18:54:11 51° WNW 18:57:11 10° N
Okean 3 4.3 18:50:21 10° N 18:54:19 34° ENE 18:55:36 28° ESE
Cosmos 1980 Rocket 4.0 18:50:43 10° NW 18:55:15 25° WSW 18:59:46 10° SSW
IGS 5A 3.5 18:53:12 24° S 18:55:41 78° W 18:59:52 10° NNW
Cosmos 468 Rocket 4.5 18:50:35 10° NNW 18:55:47 57° WSW 18:59:33 18° S
USA 276 2.4 18:54:19 10° W 18:57:24 48° SSW 18:57:49 44° S
X-37B 2.0 18:55:34 10° WSW 18:58:07 25° SSW 18:58:07 25° SSW
Cosmos 1153 Rocket 4.4 18:52:09 10° S 18:58:16 80° E 19:04:30 10° N
Cosmos 44 3.4 18:54:38 10° NW 18:59:33 74° SW 19:02:11 29° SSE
Iridium 4 Rocket 3.8 18:58:58 29° ESE 18:59:43 32° E 19:03:25 10° NNE
Lacrosse 5 2.7 18:55:25 10° WNW 19:00:08 40° SW 19:02:39 23° S
Resurs 01 Rocket 3.1 18:57:40 10° SSW 19:01:42 34° W 19:05:46 10° NNW
Cosmos 1666 4.1 19:02:45 22° ENE 19:02:45 22° ENE 19:05:19 10° NE
CARTOSAT-1 3.6 19:03:23 35° SE 19:05:05 66° ENE 19:09:24 10° N
Cosmos 1602 4.4 19:02:37 10° SSW 19:06:24 56° WNW 19:10:18 10° N
GP-B 4.1 19:02:29 10° N 19:06:45 46° W 19:10:59 10° SSW
USA 238 DEB 4.3 19:03:05 10° WSW 19:09:39 59° NW 19:16:33 10° NE
USA 238 4.3 19:03:10 10° WSW 19:09:45 59° NW 19:16:39 10° NE
Cosmos 1933 Rocket 4.3 19:06:38 10° SSW 19:10:57 52° WNW 19:15:20 10° N
COSMOS 2428 4.0 19:07:50 10° NNW 19:12:53 30° NE 19:15:48 20° E
CENTAUR R/B 2.7 19:06:55 10° SW 19:12:58 78° NW 19:20:14 10° NE
Cosmos 1802 Rocket 4.2 19:10:10 28° SSE 19:13:20 52° E 19:19:26 10° NNE
CZ-4B DEB 4.2 19:13:12 60° SSE 19:13:45 87° ENE 19:17:06 10° NNW
Spot 2 Rocket 3.9 19:11:06 21° S 19:14:25 59° WSW 19:19:28 10° NNW
Cosmos 1814 Rocket 3.9 19:09:12 10° NNW 19:14:27 83° ENE 19:16:43 35° SSE
Cosmos 2237 Rocket 4.3 19:13:22 10° N 19:17:03 17° NE 19:20:42 10° ENE
Cosmos 405 Rocket 4.3 19:16:02 10° SW 19:19:26 33° WNW 19:22:54 10° N
Cosmos 1869 Rocket 3.5 19:20:37 34° S 19:22:32 86° E 19:27:02 10° N
Cosmos 1741 Rocket 4.5 19:17:43 10° SW 19:22:56 61° WNW 19:28:11 10° NNE
Okean 1-7 3.6 19:18:46 10° NNW 19:22:57 52° W 19:24:59 27° SSW
Cosmos 44 Rocket 4.4 19:18:42 10° NNW 19:23:20 37° NE 19:25:33 25° E
Cosmos 1437 Rocket 4.1 19:26:52 10° NNW 19:30:18 33° W 19:31:55 23° SW
Cosmos 2333 Rocket 2.9 19:25:33 10° NNW 19:31:06 45° NE 19:33:20 31° ESE
Cosmos 1570 Rocket 4.4 19:27:00 10° NNW 19:32:15 59° WSW 19:34:32 32° S
Cosmos 1271 Rocket 4.4 19:31:24 10° NNE 19:34:16 21° ENE 19:34:16 21° ENE
NOSS 5 (C) 4.5 19:30:38 10° SW 19:34:52 88° NW 19:38:09 10° NE
FALCON 9 DEB 4.4 19:31:39 10° WNW 19:34:59 39° N 19:36:21 26° NE
Cosmos 1674 Rocket 4.3 19:32:29 10° N 19:36:31 35° ENE 19:36:49 35° E
Cosmos 1066 Rocket 4.5 19:32:31 10° N 19:38:03 53° ENE 19:39:35 41° ESE
SPOT 5 2.8 19:38:25 45° SSW 19:39:36 67° WSW 19:44:03 10° NNW
Meteor 1-5 Rocket 4.3 19:36:35 27° S 19:40:00 90° NNE 19:45:56 10° NNE
Cosmos 2208 Rocket 4.4 19:38:31 10° NNW 19:43:39 56° WSW 19:45:27 37° SSW
Meteor 1-11 Rocket 3.7 19:49:18 43° S 19:51:15 77° E 19:57:05 10° NNE
Tsikada Rocket 4.0 19:45:37 10° N 19:51:57 69° ENE 19:53:56 45° SE
Cosmos 1733 Rocket 3.1 19:52:37 59° E 19:52:37 59° E 19:56:58 10° NNE
USA 267 3.1 19:47:36 10° NE 19:54:12 83° SSE 20:00:45 10° SW
Cosmos 1356 3.9 19:56:57 57° N 19:56:57 57° N 19:59:47 10° N
Cosmos 2100 Rocket 4.3 19:52:15 21° SSW 19:56:25 63° WNW 20:02:32 10° N
Cosmos 968 Rocket 3.9 19:57:26 43° E 19:57:26 43° E 20:02:00 10° NE
ERBS 3.5 19:54:20 10° NW 19:57:19 37° NNE 19:57:19 37° NNE
Cosmos 2173 Rocket 4.3 19:56:36 23° SSW 20:00:31 62° WNW 20:06:35 10° N
Lacrosse 4 Rocket 1.3 20:01:22 76° ENE 20:01:22 76° ENE 20:05:19 10° NE
Cosmos 2219 Rocket 2.3 19:55:36 10° NNW 20:01:17 65° ENE 20:02:41 48° ESE
ALOS 2 4.3 20:02:13 21° ENE 20:02:34 22° ENE 20:05:54 10° NNE
SL-16 R/B 3.9 19:59:27 10° NW 20:03:53 24° WSW 20:06:27 18° SW
GENESIS II 4.4 20:02:44 10° NW 20:06:20 64° W 20:06:20 64° W
SL-4 R/B 2.2 20:04:05 10° WNW 20:07:25 58° NNW 20:07:25 58° NNW
BREEZE-M DEB (TANK) 3.5 20:04:23 10° WNW 20:08:11 87° SSW 20:22:22 10° ESE
Cosmos 1725 Rocket 4.0 20:10:38 42° SSW 20:12:57 86° W 20:19:21 10° N
Meteor 1-23 Rocket 4.2 20:07:48 10° NNW 20:13:40 87° W 20:14:59 56° S
Cosmos 2322 3.6 20:08:46 10° NNW 20:14:26 76° WSW 20:15:30 59° S
SL-08 R/B 4.4 20:15:01 42° SSW 20:17:11 79° W 20:23:20 10° N
Cosmos 1242 Rocket 3.3 20:13:53 10° NNW 20:16:53 52° NW 20:16:53 52° NW
ERS-1 Rocket 4.4 20:16:14 24° SW 20:18:01 29° W 20:22:24 10° NW
Cosmos 1833 4.3 20:16:17 32° SW 20:18:59 74° WNW 20:24:42 10° NNE
Spot 4 4.0 20:19:11 56° E 20:19:28 57° ENE 20:24:13 10° N
Cosmos 2016 Rocket 4.3 20:17:44 32° SSW 20:20:43 65° WNW 20:27:06 10° N
Cosmos 2322 Rocket 4.0 20:16:54 10° NW 20:21:08 22° W 20:23:15 18° SW
Cosmos 836 Rocket 4.3 20:16:11 10° NNW 20:21:26 86° WSW 20:21:58 72° S
Cosmos 1908 Rocket 4.2 20:27:40 44° NE 20:27:40 44° NE 20:31:04 10° NNE
Cosmos 1536 3.5 20:27:22 49° WNW 20:27:22 49° WNW 20:31:14 10° N
Cosmos 1378 Rocket 3.6 20:23:34 10° N 20:27:49 81° NNW 20:27:49 81° NNW
Terra 3.0 20:27:56 31° WSW 20:28:49 33° W 20:33:08 10° NNW
Cosmos 2333 4.4 20:23:36 10° NW 20:29:18 60° WSW 20:30:11 54° SSW
USA 234 3.3 20:29:00 51° S 20:30:21 61° SW 20:36:51 10° WNW
Cosmos 2360 Rocket 3.3 20:25:39 10° NW 20:30:38 32° WSW 20:31:48 30° SW
MOS 1-B Rocket 3.7 20:26:07 10° NNE 20:31:45 80° ESE 20:32:40 63° S
SL-16 R/B 4.1 20:28:20 10° N 20:32:43 22° NE 20:35:50 15° E
ATLAS 3B R/B 3.0 20:28:51 10° WSW 20:35:23 61° NW 20:42:01 10° NE
Cosmos 1666 4.2 20:37:36 29° WNW 20:37:47 29° WNW 20:41:08 10° N
COSMOS 2487 4.1 20:39:02 32° NW 20:39:02 32° NW 20:41:44 10° N
Cosmos 1354 Rocket 4.1 20:43:36 62° E 20:43:36 62° E 20:48:34 10° NNE
Cosmos 1378 4.4 20:44:00 10° NNW 20:46:39 38° NW 20:46:39 38° NW
Cosmos 2297 Rocket 3.6 20:50:24 25° E 20:50:24 25° E 20:53:54 10° NE
Meteor 1-21 4.4 20:44:21 10° N 20:50:07 61° ENE 20:50:40 58° ESE
Cosmos 1975 Rocket 3.7 20:46:18 10° N 20:50:09 51° NE 20:50:09 51° NE
Cosmos 2233 Rocket 4.1 20:49:34 50° SW 20:51:14 71° W 20:57:35 10° N
Meteor 2-9 Rocket 4.4 20:53:15 55° E 20:53:16 55° E 20:58:55 10° NNE
Cosmos 1980 3.8 20:48:47 10° NNW 20:54:27 64° ENE 20:55:09 58° E
Thor Agena Rocket 3.4 20:49:24 10° NNE 20:54:28 81° E 20:54:28 81° E
Timation 2 Rocket 4.2 20:54:54 49° E 20:54:54 49° E 21:00:21 10° NE
COSMOS 2428 2.9 20:51:53 10° NW 20:57:31 58° WSW 20:57:48 58° SW
Cosmos 1975 3.9 21:00:29 41° NNE 21:00:29 41° NNE 21:03:15 10° NNE
Okean 2 4.1 20:55:12 10° N 20:58:24 53° N 20:58:24 53° N
Cosmos 1743 3.8 21:00:17 43° NNW 21:00:17 43° NNW 21:03:15 10° N
Cosmos 1464 Rocket 4.0 21:01:30 58° ESE 21:02:00 59° E 21:08:04 10° NNE
Cosmos 2237 Rocket 2.2 20:56:35 10° NNW 21:02:14 68° ENE 21:02:46 64° E
Cosmos 2219 4.0 21:04:38 37° E 21:04:38 37° E 21:08:54 10° NE
CENTAUR R/B 4.5 20:59:03 10° W 21:04:51 32° NNW 21:11:33 10° NE
Cosmos 44 Rocket 4.1 21:00:12 10° NW 21:04:15 42° W 21:04:15 42° W
Cosmos 1025 Rocket 4.4 21:02:28 10° N 21:05:39 30° NE 21:05:39 30° NE
NOSS 0 Rocket 3.8 21:00:57 10° NNW 21:07:13 80° WSW 21:07:51 71° S
Cosmos 783 Rocket 4.5 21:02:50 10° NNW 21:07:57 74° W 21:07:57 74° W
Nadezhda 4 Rocket 4.2 21:03:21 10° N 21:09:32 56° ENE 21:10:23 52° ESE
Cosmos 1271 Rocket 4.4 21:07:01 10° NNW 21:09:24 28° WNW 21:09:24 28° WNW
Cosmos 2333 Rocket 3.1 21:10:05 10° NW 21:15:16 35° WSW 21:15:19 35° WSW
Okean 2 Rocket 4.4 21:16:22 33° ENE 21:16:22 33° ENE 21:19:28 10° NNE
ATLAS 5 CENTAUR R/B 4.0 21:13:11 10° WNW 21:14:58 25° W 21:14:58 25° W
Geosat 4.3 21:18:02 56° W 21:18:02 56° W 21:22:33 10° NW
Cosmos 1503 Rocket 4.3 21:17:56 59° W 21:18:29 63° WNW 21:23:50 10° NNE
Cosmos 1513 Rocket 4.4 21:22:30 71° S 21:23:17 86° E 21:29:45 10° N
DNEPR-1 R/B 4.0 21:24:40 10° NW 21:30:25 82° N 21:30:25 82° N
Cosmos 1092 Rocket 4.4 21:25:08 10° N 21:31:12 51° ENE 21:32:06 47° ESE
Cosmos 2034 Rocket 3.9 21:34:42 70° SE 21:35:15 75° E 21:41:36 10° NNE
Cosmos 1072 Rocket 4.4 21:35:55 67° SW 21:36:34 74° W 21:42:43 10° N
Sich 1 Rocket 4.2 21:37:44 54° N 21:37:44 54° N 21:41:10 10° N
USA 267 4.0 21:30:43 10° ENE 21:36:59 51° NNW 21:43:16 10° W
Cosmos 773 Rocket 4.3 21:33:05 10° NNW 21:37:32 57° WNW 21:37:32 57° WNW
ALOS 2 3.6 21:39:37 40° WNW 21:39:37 40° WNW 21:42:52 10° NNW
Cosmos 2227 Rocket 2.5 21:40:11 52° E 21:40:11 52° E 21:45:11 10° NE
Lacrosse 4 Rocket 4.0 21:37:37 11° W 21:40:19 18° NW 21:43:13 10° N
Helios 1A 3.8 21:41:31 50° N 21:41:31 50° N 21:44:46 10° N
Cosmos 2219 Rocket 3.7 21:40:20 10° NW 21:44:23 23° W 21:44:23 23° W
Meteor 1-12 Rocket 4.3 21:45:51 71° ESE 21:46:06 72° E 21:52:07 10° NNE
Cosmos 1707 4.2 21:44:09 10° NNW 21:46:37 37° NNW 21:46:37 37° NNW
Cosmos 2151 Rocket 4.5 21:49:25 43° NE 21:49:25 43° NE 21:52:40 10° NNE
Cosmos 1536 Rocket 4.3 21:49:11 10° N 21:52:31 51° NNE 21:52:31 51° NNE
Resurs 1-4 Rocket 4.4 21:51:55 10° ENE 21:53:44 12° E 21:54:28 11° E
Cosmos 1538 Rocket 4.2 21:50:45 10° NNW 21:55:15 61° WNW 21:55:15 61° WNW
Cosmos 1607 3.8 21:56:17 10° NW 22:02:46 83° SW 22:03:22 74° S
Cosmos 1375 Rocket 4.5 22:03:31 66° SE 22:03:50 67° ESE 22:10:25 10° NE
USA 229 DEB 4.5 22:05:51 33° ESE 22:05:51 33° ESE 22:11:35 10° NE
USA 229 4.5 22:05:59 33° ESE 22:05:59 33° ESE 22:11:40 10° NE
Cosmos 158 Rocket 4.4 22:01:03 10° NNW 22:06:23 58° ENE 22:06:53 55° E
Cosmos 2082 4.1 22:06:55 50° E 22:06:55 50° E 22:11:57 10° NE
Cosmos 2195 Rocket 4.4 22:04:27 10° N 22:10:50 85° E 22:11:35 71° SSE
Cosmos 2344 4.4 22:02:19 10° NW 22:11:47 71° SW 22:17:18 39° SSE
SL-16 R/B 3.9 22:10:36 20° ESE 22:14:03 33° ENE 22:19:31 10° N
Cosmos 2263 Rocket 4.1 22:17:00 17° E 22:17:10 17° E 22:20:37 10° ENE
SL-16 R/B 2.0 22:11:53 10° NNW 22:17:37 87° WSW 22:17:41 87° SSW
PSLV R/B 4.0 22:13:09 10° NNE 22:17:19 66° NE 22:17:19 66° NE
Helios 1B rocket 3.6 22:15:09 10° NNE 22:18:00 37° NE 22:18:00 37° NE
Cosmos 2112 Rocket 4.2 22:15:10 10° NNW 22:20:22 62° ENE 22:20:39 61° E
CZ-4 R/B 4.0 22:16:00 10° NNE 22:20:42 71° ENE 22:20:42 71° ENE
Cosmos 2026 Rocket 3.8 22:16:40 10° N 22:22:49 89° E 22:23:28 74° SSE
Cosmos 2279 Rocket 4.3 22:24:45 48° ESE 22:25:40 53° E 22:31:41 10° NNE
Cosmos 1898 Rocket 4.3 22:27:31 40° E 22:27:31 40° E 22:32:04 10° NE
Cosmos 2297 Rocket 2.5 22:32:12 52° W 22:32:56 56° WNW 22:38:32 10° NNE
Cosmos 1680 Rocket 3.4 22:30:01 10° NNW 22:35:05 83° NW 22:35:05 83° NW
Cosmos 724 4.5 22:30:31 10° NW 22:36:32 71° NE 22:38:30 44° ESE
Cosmos 1634 Rocket 3.8 22:41:33 67° SW 22:42:21 78° W 22:48:35 10° N
Cosmos 1627 Rocket 4.5 22:37:44 10° NNW 22:43:51 63° W 22:44:23 60° WSW
Cosmos 2237 Rocket 3.8 22:41:33 10° NW 22:44:34 20° W 22:44:34 20° W
SJ 16-02 1.7 22:47:38 63° NNE 22:47:38 63° NNE 22:51:23 10° NNE
Cosmos 2219 4.1 22:46:31 35° W 22:47:52 40° NW 22:53:09 10° NNE
Okean 1 Rocket 3.5 22:50:07 59° NNW 22:50:07 59° NNW 22:53:48 10° N
Meteor 1-15 Rocket 4.2 22:55:36 61° W 22:56:01 64° WNW 23:01:35 10° N
Meteor 1-24 Rocket 3.4 22:51:19 10° N 22:56:44 85° E 22:57:07 77° SSE
Cosmos 1603 4.1 22:52:36 10° NNW 22:58:18 60° ENE 23:00:43 34° ESE
Cosmos 2142 Rocket 4.5 22:59:23 61° SSW 23:00:31 78° W 23:06:58 10° N
ATLAS CENTAUR R/B 3.7 23:04:06 14° E 23:04:06 14° E 23:05:26 10° E
CZ-2D R/B 2.8 22:58:47 10° NNE 23:04:02 44° E 23:05:05 40° SE
NOSS 2-3 (E) 4.0 23:13:47 53° ESE 23:13:47 53° ESE 23:18:22 10° NE
Okean 1-7 Rocket 3.6 23:10:39 10° N 23:15:00 79° ENE 23:15:00 79° ENE
Cosmos 858 Rocket 4.4 23:14:41 68° SSE 23:15:10 73° ESE 23:20:27 10° NNE
Cosmos 1455 Rocket 3.3 23:15:14 65° E 23:15:14 65° E 23:19:38 10° NNE
Cosmos 2266 Rocket 4.0 23:09:00 10° N 23:15:20 75° E 23:17:25 44° SSE
Cosmos 1943 3.4 23:10:16 10° NNW 23:15:54 68° ENE 23:18:28 33° SE
NOSS 3-1 (C) 3.2 23:16:43 62° SW 23:17:47 86° NW 23:24:20 10° NE
USA 267 4.3 23:13:14 10° ENE 23:19:20 43° N 23:25:26 10° WNW
Cosmos 1626 3.5 23:16:21 10° NNW 23:18:35 32° NW 23:18:35 32° NW
Cosmos 1733 4.3 23:24:08 38° NW 23:24:08 38° NW 23:27:02 10° N
MOZ.5/SAFIR/RUBIN 5/SL-8 3.7 23:23:32 70° W 23:23:32 70° W 23:28:10 10° NNW
Cosmos 2227 Rocket 3.5 23:22:00 25° W 23:24:00 31° NW 23:29:03 10° NNE
Cosmos 1340 Rocket 3.1 23:25:32 60° ENE 23:25:32 60° ENE 23:29:05 10° NNE
Cosmos 1461 4.0 23:24:34 38° WNW 23:25:11 40° NW 23:29:34 10° NNE
NPP 4.0 23:19:53 10° NNE 23:25:12 55° E 23:26:29 44° SSE
Cosmos 1766 4.5 23:26:27 33° NW 23:26:27 33° NW 23:29:18 10° N
Cosmos 1892 Rocket 3.9 23:23:58 10° NNW 23:27:50 54° WNW 23:27:50 54° WNW
Cosmos 1758 3.6 23:29:16 61° E 23:29:16 61° E 23:33:03 10° NNE
Exosat Rocket 4.3 23:27:02 42° S 23:29:42 70° ESE 23:35:36 10° NNE
Cosmos 2098 Rocket 3.9 23:24:12 10° N 23:29:53 86° W 23:32:03 46° S
Timation 1 Rocket 4.2 23:30:45 56° SSW 23:32:06 88° WNW 23:38:07 10° NNE
Resurs 1-4 Rocket 2.1 23:29:09 10° NNE 23:34:27 78° ESE 23:35:32 57° S
Meteor 1-22 Rocket 4.2 23:34:56 54° WSW 23:35:41 60° WNW 23:41:03 10° N
UNK 3.6 23:35:51 73° SW 23:36:06 76° WSW 23:40:48 10° NNW
Meteor 2-5 Rocket 4.4 23:31:43 10° NNW 23:36:47 36° W 23:36:52 36° W
NOSS 2-3 (D) 3.5 23:37:32 75° S 23:37:47 79° SE 23:42:53 10° NE
SL-24 R/B 4.4 23:37:19 57° S 23:38:23 88° E 23:43:49 10° N
Cosmos 1470 2.8 23:39:13 76° NNW 23:39:13 76° NNW 23:42:58 10° N
COBE Rocket 4.0 23:41:55 43° SE 23:43:20 68° ENE 23:47:59 10° N
Cosmos 1953 3.0 23:43:41 43° ESE 23:44:13 46° E 23:48:08 10° NNE
Cosmos 2292 Rocket 4.4 23:38:01 10° NNW 23:44:52 61° W 23:46:04 50° SW
Cosmos 372 Rocket 4.2 23:44:04 49° SSE 23:45:17 65° ESE 23:50:31 10° NNE
Cosmos 1937 Rocket 3.7 23:49:29 49° WSW 23:50:39 60° WNW 23:55:56 10° NNE
Cosmos 2227 4.2 23:49:19 50° SSW 23:50:55 89° WNW 23:56:44 10° NNE
Helios 1B rocket 4.3 23:51:12 10° NNW 23:54:05 19° WNW 23:54:18 19° WNW
CZ-4B R/B 3.7 23:49:37 10° NNE 23:54:20 59° ESE 23:55:44 41° SSE
IKONOS-2 4.4 23:54:24 67° WSW 23:54:29 67° WSW 23:58:45 10° NNW
